Harvey, ND

10:40 PM CST on November 19, 2017 (GMT -0600)
Harvey

Weather History for K5H4 - March, 2014

Change the Weather History Date:

Tuesday, March 25, 2014

  Actual Average (KRUG) Record (KRUG)
Temperature  
Mean Temperature 14 °F -  
Max Temperature 24 °F 40 °F 62 °F (1968)
Min Temperature 5 °F 22 °F -20 °F (1964)
Degree Days  
Heating Degree Days 50    
Moisture  
Dew Point 3 °F    
Average Humidity 62    
Maximum Humidity 85    
Minimum Humidity 36    
Precipitation  
Precipitation 0.00 in - - ()
Sea Level Pressure  
Sea Level Pressure 30.17 in    
Wind  
Wind Speed 11 mph (WNW)    
Max Wind Speed 18 mph    
Max Gust Speed 25 mph    
Visibility 10 miles    
Events      
Averages and records for this station are not official NWS values.
T = Trace of Precipitation, MM = Missing Value Source: NWS Daily Summary

Daily Weather History Graph

Daily Weather History Graph

Search for Another Location

Airport or City:

Trip Planner

Search our weather history database for the weather conditions in past years. The results will help you decide how hot, cold, wet, or windy it might be!

Date:

Astronomy

Mar. 25, 2014 Rise Set
Actual Time 7:32 AM CDT 7:59 PM CDT
Civil Twilight 7:01 AM CDT 8:30 PM CDT
Nautical Twilight 6:24 AM CDT 9:07 PM CDT
Astronomical Twilight 5:46 AM CDT 9:45 PM CDT
Moon 4:17 AM CDT (3/25) 2:11 PM CDT (3/25)
Length of Visible Light 13h 29m
Length of Day
12h 27m
Waning Crescent, 32% of the Moon is Illuminated
Mar 25
Waning Crescent
Mar 30
New
Apr 7
First Quarter
Apr 15
Full
Apr 22
Last Quarter

Hourly Weather History & Observations

Time (CDT) Temp. Windchill Dew Point Humidity Pressure Visibility Wind Dir Wind Speed Gust Speed Precip Events Conditions
12:15 AM 8.6 °F -8.9 °F 1.4 °F 73% 30.30 in 10.0 mi NW 16.1 mph 25.3 mph N/A   Clear
12:55 AM 8.6 °F -9.5 °F 1.4 °F 73% 30.31 in 10.0 mi NW 17.3 mph - N/A   Clear
1:15 AM 8.6 °F -7.7 °F 1.4 °F 73% 30.31 in 10.0 mi NNW 13.8 mph 23.0 mph N/A   Clear
1:35 AM 8.6 °F -8.3 °F 1.4 °F 73% 30.31 in 10.0 mi NW 15.0 mph - N/A   Clear
1:55 AM 6.8 °F -10.0 °F 1.4 °F 79% 30.31 in 10.0 mi NNW 13.8 mph - N/A   Clear
2:15 AM 6.8 °F -11.8 °F 1.4 °F 79% 30.31 in 10.0 mi NNW 17.3 mph 23.0 mph N/A   Clear
2:35 AM 6.8 °F -12.4 °F 1.4 °F 79% 30.31 in 10.0 mi NNW 18.4 mph - N/A   Clear
2:55 AM 6.8 °F -10.7 °F 1.4 °F 79% 30.32 in 10.0 mi NNW 15.0 mph - N/A   Clear
3:15 AM 6.8 °F -10.0 °F 1.4 °F 79% 30.32 in 10.0 mi NW 13.8 mph 20.7 mph N/A   Clear
3:35 AM 6.8 °F -9.3 °F 1.4 °F 79% 30.31 in 10.0 mi NW 12.7 mph - N/A   Clear
4:15 AM 6.8 °F -6.9 °F 1.4 °F 79% 30.31 in 10.0 mi NW 9.2 mph - N/A   Clear
4:35 AM 5.0 °F -8.1 °F 1.4 °F 85% 30.31 in 10.0 mi WNW 8.1 mph - N/A   Clear
4:55 AM 5.0 °F -9.1 °F 1.4 °F 85% 30.30 in 10.0 mi WNW 9.2 mph - N/A   Clear
5:15 AM 5.0 °F -9.1 °F 1.4 °F 85% 30.29 in 10.0 mi NW 9.2 mph - N/A   Clear
5:35 AM 5.0 °F -6.9 °F 1.4 °F 85% 30.29 in 10.0 mi WNW 6.9 mph - N/A   Clear
5:55 AM 5.0 °F -9.1 °F 1.4 °F 85% 30.28 in 10.0 mi WNW 9.2 mph - N/A   Clear
6:15 AM 5.0 °F -8.1 °F 1.4 °F 85% 30.28 in 10.0 mi WNW 8.1 mph - N/A   Clear
6:35 AM 6.8 °F -7.8 °F 1.4 °F 79% 30.28 in 10.0 mi WNW 10.4 mph - N/A   Clear
6:55 AM 6.8 °F -7.8 °F 1.4 °F 79% 30.29 in 10.0 mi WNW 10.4 mph - N/A   Clear
7:15 AM 5.0 °F -8.1 °F 1.4 °F 85% 30.28 in 10.0 mi WNW 8.1 mph - N/A   Clear
7:35 AM 5.0 °F -10.0 °F 1.4 °F 85% 30.29 in 10.0 mi WNW 10.4 mph - N/A   Clear
7:55 AM 6.8 °F -5.9 °F 1.4 °F 79% 30.28 in 10.0 mi WNW 8.1 mph - N/A   Clear
8:15 AM 6.8 °F -7.8 °F 1.4 °F 79% 30.28 in 10.0 mi WNW 10.4 mph - N/A   Clear
8:35 AM 6.8 °F -6.9 °F 3.2 °F 85% 30.27 in 10.0 mi WNW 9.2 mph - N/A   Clear
8:55 AM 8.6 °F -6.3 °F 3.2 °F 79% 30.28 in 10.0 mi WNW 11.5 mph - N/A   Clear
9:15 AM 10.4 °F -4.8 °F 3.2 °F 73% 30.28 in 10.0 mi WNW 12.7 mph - N/A   Clear
9:35 AM 10.4 °F -4.1 °F 3.2 °F 73% 30.27 in 10.0 mi WNW 11.5 mph - N/A   Clear
9:55 AM 10.4 °F -4.8 °F 3.2 °F 73% 30.27 in 10.0 mi WNW 12.7 mph - N/A   Clear
10:15 AM 12.2 °F -1.8 °F 3.2 °F 67% 30.27 in 10.0 mi WNW 11.5 mph - N/A   Clear
10:35 AM 14.0 °F 1.2 °F 5.0 °F 67% 30.26 in 10.0 mi WNW 10.4 mph - N/A   Clear
10:55 AM 14.0 °F -0.2 °F 3.2 °F 62% 30.26 in 10.0 mi WNW 12.7 mph - N/A   Clear
11:15 AM 15.8 °F 2.7 °F 3.2 °F 58% 30.26 in 10.0 mi WNW 11.5 mph 17.3 mph N/A   Clear
11:35 AM 15.8 °F 2.1 °F 1.4 °F 53% 30.25 in 10.0 mi West 12.7 mph - N/A   Clear
11:55 AM 15.8 °F 1.4 °F 1.4 °F 53% 30.24 in 10.0 mi WNW 13.8 mph 18.4 mph N/A   Clear
12:15 PM 15.8 °F 2.1 °F 1.4 °F 53% 30.24 in 10.0 mi WNW 12.7 mph 18.4 mph N/A   Clear
12:35 PM 17.6 °F 4.3 °F 1.4 °F 49% 30.23 in 10.0 mi WNW 12.7 mph 17.3 mph N/A   Clear
12:55 PM 17.6 °F 4.3 °F 1.4 °F 49% 30.21 in 10.0 mi WNW 12.7 mph 17.3 mph N/A   Clear
1:15 PM 17.6 °F 5.0 °F 1.4 °F 49% 30.20 in 10.0 mi NW 11.5 mph - N/A   Clear
1:35 PM 19.4 °F 9.5 °F 1.4 °F 46% 30.19 in 10.0 mi West 8.1 mph 16.1 mph N/A   Clear
1:55 PM 19.4 °F 6.6 °F 3.2 °F 49% 30.18 in 10.0 mi WNW 12.7 mph 16.1 mph N/A   Clear
2:15 PM 21.2 °F 10.1 °F 1.4 °F 42% 30.17 in 10.0 mi WNW 10.4 mph - N/A   Clear
2:35 PM 21.2 °F 10.1 °F 3.2 °F 46% 30.16 in 10.0 mi WNW 10.4 mph - N/A   Clear
2:55 PM 23.0 °F 14.7 °F 1.4 °F 39% 30.15 in 10.0 mi NW 6.9 mph - N/A   Clear
3:15 PM 23.0 °F 13.1 °F 1.4 °F 39% 30.14 in 10.0 mi NW 9.2 mph - N/A   Clear
3:35 PM 23.0 °F 13.9 °F 3.2 °F 43% 30.13 in 10.0 mi WNW 8.1 mph - N/A   Clear
3:55 PM 23.0 °F 14.7 °F 1.4 °F 39% 30.11 in 10.0 mi West 6.9 mph - N/A   Clear
4:15 PM 24.8 °F 20.5 °F 5.0 °F 43% 30.11 in 10.0 mi WNW 3.5 mph - N/A   Clear
4:35 PM 24.8 °F 14.6 °F 3.2 °F 40% 30.10 in 10.0 mi West 10.4 mph - N/A   Clear
4:55 PM 24.8 °F 16.1 °F 3.2 °F 40% 30.10 in 10.0 mi WNW 8.1 mph - N/A   Clear
5:15 PM 24.8 °F 16.9 °F 1.4 °F 36% 30.08 in 10.0 mi West 6.9 mph - N/A   Clear
5:35 PM 24.8 °F 16.9 °F 3.2 °F 40% 30.07 in 10.0 mi NNW 6.9 mph - N/A   Clear
5:55 PM 24.8 °F 20.5 °F 1.4 °F 36% 30.07 in 10.0 mi WNW 3.5 mph - N/A   Clear
6:15 PM 24.8 °F 20.5 °F 1.4 °F 36% 30.06 in 10.0 mi NW 3.5 mph - N/A   Clear
6:35 PM 24.8 °F 17.9 °F 1.4 °F 36% 30.05 in 10.0 mi West 5.8 mph - N/A   Clear
6:55 PM 24.8 °F - 1.4 °F 36% 30.03 in 10.0 mi Calm Calm - N/A   Clear
7:15 PM 24.8 °F - 1.4 °F 36% 30.02 in 10.0 mi Calm Calm - N/A   Clear
7:35 PM 23.0 °F 18.4 °F 5.0 °F 46% 30.01 in 10.0 mi East 3.5 mph - N/A   Partly Cloudy
7:55 PM 23.0 °F 18.4 °F 6.8 °F 50% 30.00 in 10.0 mi ESE 3.5 mph - N/A   Clear
8:15 PM 21.2 °F 13.6 °F 8.6 °F 58% 29.99 in 10.0 mi ESE 5.8 mph - N/A   Clear
8:35 PM 19.4 °F 12.8 °F 8.6 °F 63% 29.99 in 10.0 mi SE 4.6 mph - N/A   Clear
8:55 PM 19.4 °F 12.8 °F 6.8 °F 58% 29.99 in 10.0 mi SE 4.6 mph - N/A   Scattered Clouds
9:15 PM 19.4 °F 12.8 °F 6.8 °F 58% 29.98 in 10.0 mi SE 4.6 mph - N/A   Scattered Clouds
9:35 PM 19.4 °F 11.5 °F 8.6 °F 63% 29.97 in 10.0 mi SE 5.8 mph - N/A   Clear
9:55 PM 19.4 °F 10.4 °F 8.6 °F 63% 29.96 in 10.0 mi SE 6.9 mph - N/A   Clear
10:15 PM 17.6 °F 9.3 °F 8.6 °F 68% 29.96 in 10.0 mi SE 5.8 mph - N/A   Clear
10:35 PM 19.4 °F 11.5 °F 8.6 °F 63% 29.96 in 10.0 mi SE 5.8 mph - N/A   Clear
10:55 PM 17.6 °F 9.3 °F 8.6 °F 68% 29.95 in 10.0 mi SE 5.8 mph - N/A   Clear
11:15 PM 17.6 °F 9.3 °F 8.6 °F 68% 29.94 in 10.0 mi SE 5.8 mph - N/A   Clear
11:35 PM 17.6 °F 8.2 °F 8.6 °F 68% 29.93 in 10.0 mi SE 6.9 mph - N/A   Clear
11:55 PM 17.6 °F 7.3 °F 8.6 °F 68% 29.92 in 10.0 mi SE 8.1 mph - N/A   Clear